Year,Month,Day,Hour,Minute,Value (Times are PST for temperature in C)
2016,06,17,10,16,16.70
2016,06,17,10,17,16.60
2016,06,17,10,18,16.50
2016,06,17,10,19,16.40
2016,06,17,10,20,16.40
2016,06,17,10,21,16.40
2016,06,17,10,22,16.50
2016,06,17,10,23,16.60
2016,06,17,10,24,16.60
2016,06,17,10,25,16.60
2016,06,17,10,26,16.60
2016,06,17,10,27,16.60
2016,06,17,10,28,16.50
2016,06,17,10,29,16.40
2016,06,17,10,30,16.40
2016,06,17,10,31,16.40
2016,06,17,10,32,16.50
2016,06,17,10,33,16.70
2016,06,17,10,34,16.70
2016,06,17,10,35,16.80
2016,06,17,10,36,16.90
2016,06,17,10,37,16.90
2016,06,17,10,38,17.00
2016,06,17,10,39,17.10
2016,06,17,10,40,17.30
2016,06,17,10,41,17.40
2016,06,17,10,42,17.50
2016,06,17,10,43,17.60
2016,06,17,10,44,17.70
2016,06,17,10,45,17.80
2016,06,17,10,46,17.90
2016,06,17,10,47,18.10
2016,06,17,10,48,18.10
2016,06,17,10,49,18.10
2016,06,17,10,50,18.10
2016,06,17,10,51,18.10
2016,06,17,10,52,18.20
2016,06,17,10,53,18.20
2016,06,17,10,54,18.20
2016,06,17,10,55,18.20
2016,06,17,10,56,18.20
2016,06,17,10,57,18.10
2016,06,17,10,58,18.10
2016,06,17,10,59,18.10
2016,06,17,11,00,18.10
2016,06,17,11,01,18.00
2016,06,17,11,02,17.90
2016,06,17,11,03,18.00
2016,06,17,11,04,18.10
2016,06,17,11,05,18.10
2016,06,17,11,06,18.20
2016,06,17,11,07,18.20
2016,06,17,11,08,18.10
2016,06,17,11,09,17.90
2016,06,17,11,10,17.90
2016,06,17,11,11,17.80
2016,06,17,11,12,17.70
2016,06,17,11,13,17.80
2016,06,17,11,14,17.80
2016,06,17,11,15,17.80
2016,06,17,11,16,17.80
2016,06,17,11,17,17.90
2016,06,17,11,18,17.90
2016,06,17,11,19,17.90
2016,06,17,11,20,17.90
2016,06,17,11,21,17.90
2016,06,17,11,22,18.00
2016,06,17,11,23,18.10
2016,06,17,11,24,18.10
2016,06,17,11,25,17.90
2016,06,17,11,26,17.90
2016,06,17,11,27,17.90
2016,06,17,11,28,17.90
2016,06,17,11,29,18.10
2016,06,17,11,30,18.10
2016,06,17,11,31,18.20
2016,06,17,11,32,18.20
2016,06,17,11,33,18.40
2016,06,17,11,34,18.40
2016,06,17,11,35,18.40
2016,06,17,11,36,18.50
2016,06,17,11,37,18.50
2016,06,17,11,38,18.60
2016,06,17,11,39,18.50
2016,06,17,11,40,18.50
2016,06,17,11,41,18.50
2016,06,17,11,42,18.50
2016,06,17,11,43,18.40
2016,06,17,11,44,18.30
2016,06,17,11,45,18.40
2016,06,17,11,46,18.50
2016,06,17,11,47,18.50
2016,06,17,11,48,18.50
2016,06,17,11,49,18.60
2016,06,17,11,50,18.60
2016,06,17,11,51,18.60
2016,06,17,11,52,18.60
2016,06,17,11,53,18.60
2016,06,17,11,54,18.70
2016,06,17,11,55,18.80
2016,06,17,11,56,18.90
2016,06,17,11,57,19.00
2016,06,17,11,58,19.10
2016,06,17,11,59,19.20
2016,06,17,12,00,19.20
2016,06,17,12,01,19.20
2016,06,17,12,02,19.20
2016,06,17,12,03,19.20
2016,06,17,12,04,19.10
2016,06,17,12,05,19.10
2016,06,17,12,06,19.20
2016,06,17,12,07,19.30
2016,06,17,12,08,19.30
2016,06,17,12,09,19.40
2016,06,17,12,10,19.40
2016,06,17,12,11,19.50
2016,06,17,12,12,19.60
2016,06,17,12,13,19.60
2016,06,17,12,14,19.60
2016,06,17,12,15,19.60
2016,06,17,12,16,19.80
2016,06,17,12,17,19.90
2016,06,17,12,18,19.90
2016,06,17,12,19,19.90
2016,06,17,12,20,19.90
2016,06,17,12,21,19.90
2016,06,17,12,22,19.90
2016,06,17,12,23,19.90
2016,06,17,12,24,19.80
2016,06,17,12,25,19.80
2016,06,17,12,26,19.80
2016,06,17,12,27,19.80
2016,06,17,12,28,19.80
2016,06,17,12,29,19.80
2016,06,17,12,30,19.80
2016,06,17,12,31,19.80
2016,06,17,12,32,19.70
2016,06,17,12,33,19.60
2016,06,17,12,34,19.40
2016,06,17,12,35,19.40
2016,06,17,12,36,19.40
2016,06,17,12,37,19.30
2016,06,17,12,38,19.40
2016,06,17,12,39,19.40
2016,06,17,12,40,19.40
2016,06,17,12,41,19.40
2016,06,17,12,42,19.50
2016,06,17,12,43,19.60
2016,06,17,12,44,19.70
2016,06,17,12,45,19.80
2016,06,17,12,46,19.70
2016,06,17,12,47,19.60
2016,06,17,12,48,19.60
2016,06,17,12,49,19.70
2016,06,17,12,50,19.80
2016,06,17,12,51,19.80
2016,06,17,12,52,19.90
2016,06,17,12,53,20.00
2016,06,17,12,54,20.10
2016,06,17,12,55,20.20
2016,06,17,12,56,20.20
2016,06,17,12,57,20.20
2016,06,17,12,58,20.30
2016,06,17,12,59,20.30
2016,06,17,13,00,20.30
2016,06,17,13,01,20.20
2016,06,17,13,02,20.10
2016,06,17,13,03,20.10
2016,06,17,13,04,20.00
2016,06,17,13,05,20.00
2016,06,17,13,06,20.10
2016,06,17,13,07,20.10
2016,06,17,13,08,20.20
2016,06,17,13,09,20.20
2016,06,17,13,10,20.20
2016,06,17,13,11,20.10
2016,06,17,13,12,20.10
2016,06,17,13,13,20.20
2016,06,17,13,14,20.20
2016,06,17,13,15,20.30
2016,06,17,13,16,20.40
2016,06,17,13,17,20.40
2016,06,17,13,18,20.50
2016,06,17,13,19,20.50
2016,06,17,13,20,20.50
2016,06,17,13,21,20.40
2016,06,17,13,22,20.40
2016,06,17,13,23,20.40
2016,06,17,13,24,20.40
2016,06,17,13,25,20.40
2016,06,17,13,26,20.40
2016,06,17,13,27,20.40
2016,06,17,13,28,20.30
2016,06,17,13,29,20.30
2016,06,17,13,30,20.30
2016,06,17,13,31,20.30
2016,06,17,13,32,20.20
2016,06,17,13,33,20.30
2016,06,17,13,34,20.40
2016,06,17,13,35,20.50
2016,06,17,13,36,20.50
2016,06,17,13,37,20.40
2016,06,17,13,38,20.30
2016,06,17,13,39,20.20
2016,06,17,13,40,20.30
2016,06,17,13,41,20.30
2016,06,17,13,42,20.30
2016,06,17,13,43,20.30
2016,06,17,13,44,20.30
2016,06,17,13,45,20.30
2016,06,17,13,46,20.40
2016,06,17,13,47,20.50
2016,06,17,13,48,20.50
2016,06,17,13,49,20.60
2016,06,17,13,50,20.60
2016,06,17,13,51,20.70
2016,06,17,13,52,20.70
2016,06,17,13,53,20.90
2016,06,17,13,54,21.00
2016,06,17,13,55,21.10
2016,06,17,13,56,21.30
2016,06,17,13,57,21.30
2016,06,17,13,58,21.50
2016,06,17,13,59,21.60
2016,06,17,14,00,21.70
2016,06,17,14,01,21.70
2016,06,17,14,02,21.60
2016,06,17,14,03,21.40
2016,06,17,14,04,21.30
2016,06,17,14,05,21.30
2016,06,17,14,06,21.20
2016,06,17,14,07,21.20
2016,06,17,14,08,21.20
2016,06,17,14,09,21.00
2016,06,17,14,10,21.00
2016,06,17,14,11,20.90
2016,06,17,14,12,21.00
2016,06,17,14,13,21.00
2016,06,17,14,14,21.00
2016,06,17,14,15,21.00
2016,06,17,14,16,21.10
2016,06,17,14,17,21.20
2016,06,17,14,18,21.20
2016,06,17,14,19,21.20
2016,06,17,14,20,21.20
2016,06,17,14,21,21.20
2016,06,17,14,22,21.30
2016,06,17,14,23,21.30
2016,06,17,14,24,21.30
2016,06,17,14,25,21.30
2016,06,17,14,26,21.30
2016,06,17,14,27,21.30
2016,06,17,14,28,21.40
2016,06,17,14,29,21.40
2016,06,17,14,30,21.40
2016,06,17,14,31,21.40
2016,06,17,14,32,21.40
2016,06,17,14,33,21.40
2016,06,17,14,34,21.40
2016,06,17,14,35,21.40
2016,06,17,14,36,21.40
2016,06,17,14,37,21.40
2016,06,17,14,38,21.40
2016,06,17,14,39,21.40
2016,06,17,14,40,21.40
2016,06,17,14,41,21.40
2016,06,17,14,42,21.40
2016,06,17,14,43,21.30
2016,06,17,14,44,21.30
2016,06,17,14,45,21.20
2016,06,17,14,46,21.10
2016,06,17,14,47,21.00
2016,06,17,14,48,21.00
2016,06,17,14,49,20.90
2016,06,17,14,50,20.80
2016,06,17,14,51,20.80
2016,06,17,14,52,20.80
2016,06,17,14,53,20.80
2016,06,17,14,54,20.80
2016,06,17,14,55,20.80
2016,06,17,14,56,20.80
2016,06,17,14,57,20.80
2016,06,17,14,58,20.80
2016,06,17,14,59,20.80
2016,06,17,15,00,20.80
2016,06,17,15,01,20.90
2016,06,17,15,02,21.00
2016,06,17,15,03,21.00
2016,06,17,15,04,21.00
2016,06,17,15,05,21.10
2016,06,17,15,06,21.20
2016,06,17,15,07,21.20
2016,06,17,15,08,21.20
2016,06,17,15,09,21.20
2016,06,17,15,10,21.30
2016,06,17,15,11,21.20
2016,06,17,15,12,21.30
2016,06,17,15,13,21.20
2016,06,17,15,14,21.20
2016,06,17,15,15,21.10
2016,06,17,15,16,21.20
2016,06,17,15,17,21.30
2016,06,17,15,18,21.30
2016,06,17,15,19,21.20
2016,06,17,15,20,21.10
2016,06,17,15,21,20.90
2016,06,17,15,22,20.80
2016,06,17,15,23,20.80
2016,06,17,15,24,20.80
2016,06,17,15,25,20.80
2016,06,17,15,26,20.90
2016,06,17,15,27,20.90
2016,06,17,15,28,21.00
2016,06,17,15,29,21.10
2016,06,17,15,30,21.20
2016,06,17,15,31,21.30
2016,06,17,15,32,21.30
2016,06,17,15,33,21.30
2016,06,17,15,34,21.30
2016,06,17,15,35,21.30
2016,06,17,15,36,21.30
2016,06,17,15,37,21.10
2016,06,17,15,38,21.00
2016,06,17,15,39,21.00
2016,06,17,15,40,21.00
2016,06,17,15,41,20.90
2016,06,17,15,42,20.90
2016,06,17,15,43,20.90
2016,06,17,15,44,20.80
2016,06,17,15,45,20.80
2016,06,17,15,46,20.80
2016,06,17,15,47,20.70
2016,06,17,15,48,20.60
2016,06,17,15,49,20.60
2016,06,17,15,50,20.50
2016,06,17,15,51,20.50
2016,06,17,15,52,20.40
2016,06,17,15,53,20.40
2016,06,17,15,54,20.40
2016,06,17,15,55,20.40
2016,06,17,15,56,20.50
2016,06,17,15,57,20.60
2016,06,17,15,58,20.80
2016,06,17,15,59,20.90
2016,06,17,16,00,21.00
2016,06,17,16,01,21.00
2016,06,17,16,02,21.10
2016,06,17,16,03,21.10
2016,06,17,16,04,21.10
2016,06,17,16,05,21.10
2016,06,17,16,06,21.20
2016,06,17,16,07,21.20
2016,06,17,16,08,21.20
2016,06,17,16,09,21.10
2016,06,17,16,10,21.00
2016,06,17,16,11,20.90
2016,06,17,16,12,20.90
2016,06,17,16,13,20.80
2016,06,17,16,14,20.70
2016,06,17,16,15,20.70
2016,06,17,16,16,20.70
2016,06,17,16,17,20.70
2016,06,17,16,18,20.70
2016,06,17,16,19,20.70
2016,06,17,16,20,20.80
2016,06,17,16,21,20.80
2016,06,17,16,22,20.80
2016,06,17,16,23,20.90
2016,06,17,16,24,20.90
2016,06,17,16,25,21.00
2016,06,17,16,26,21.00
2016,06,17,16,27,21.10
2016,06,17,16,28,21.20
2016,06,17,16,29,21.20
2016,06,17,16,30,21.10
2016,06,17,16,31,21.00
2016,06,17,16,32,20.80
2016,06,17,16,33,20.30
2016,06,17,16,34,20.00
2016,06,17,16,35,19.80
2016,06,17,16,36,19.70
2016,06,17,16,37,19.60
2016,06,17,16,38,19.60
2016,06,17,16,39,19.70
2016,06,17,16,40,19.70
2016,06,17,16,41,19.70
2016,06,17,16,42,19.70
2016,06,17,16,43,19.70
2016,06,17,16,44,19.60
2016,06,17,16,45,19.60
2016,06,17,16,46,19.60
2016,06,17,16,47,19.60
2016,06,17,16,48,19.70
2016,06,17,16,49,19.70
2016,06,17,16,50,19.60
2016,06,17,16,51,19.60
2016,06,17,16,52,19.60
2016,06,17,16,53,19.70
2016,06,17,16,54,19.70
2016,06,17,16,55,19.80
2016,06,17,16,56,19.80
2016,06,17,16,57,19.80
2016,06,17,16,58,19.80
2016,06,17,16,59,19.80
2016,06,17,17,00,19.70
2016,06,17,17,01,19.70
2016,06,17,17,02,19.60
2016,06,17,17,03,19.60
2016,06,17,17,04,19.60
2016,06,17,17,05,19.70
2016,06,17,17,06,19.70
2016,06,17,17,07,19.70
2016,06,17,17,08,19.80
2016,06,17,17,09,19.80
2016,06,17,17,10,19.80
2016,06,17,17,11,19.80
2016,06,17,17,12,19.80
2016,06,17,17,13,19.80
2016,06,17,17,14,19.80
2016,06,17,17,15,19.80
2016,06,17,17,16,19.90
2016,06,17,17,17,19.90
2016,06,17,17,18,19.90
2016,06,17,17,19,19.90
2016,06,17,17,20,19.90
2016,06,17,17,21,19.90
2016,06,17,17,22,19.90
2016,06,17,17,23,19.80
2016,06,17,17,24,19.60
2016,06,17,17,25,19.40
2016,06,17,17,26,19.30
2016,06,17,17,27,19.30
2016,06,17,17,28,19.30
2016,06,17,17,29,19.20
2016,06,17,17,30,19.10
2016,06,17,17,31,19.10
2016,06,17,17,32,19.00
2016,06,17,17,33,18.90
2016,06,17,17,34,18.80
2016,06,17,17,35,18.70
2016,06,17,17,36,18.50
2016,06,17,17,37,18.50
2016,06,17,17,38,18.40
2016,06,17,17,39,18.40
2016,06,17,17,40,18.30
2016,06,17,17,41,18.30
2016,06,17,17,42,18.30
2016,06,17,17,43,18.30
2016,06,17,17,44,18.20
2016,06,17,17,45,18.20
2016,06,17,17,46,18.20
2016,06,17,17,47,18.10
2016,06,17,17,48,18.00
2016,06,17,17,49,17.90
2016,06,17,17,50,17.90
2016,06,17,17,51,17.90
2016,06,17,17,52,17.90
2016,06,17,17,53,17.90
2016,06,17,17,54,17.80
2016,06,17,17,55,17.80
2016,06,17,17,56,17.70
2016,06,17,17,57,17.70
2016,06,17,17,58,17.60
2016,06,17,17,59,17.60
2016,06,17,18,00,17.50
2016,06,17,18,01,17.40
2016,06,17,18,02,17.40
2016,06,17,18,03,17.40
2016,06,17,18,04,17.40
2016,06,17,18,05,17.40
2016,06,17,18,06,17.30
2016,06,17,18,07,17.30
2016,06,17,18,08,17.30
2016,06,17,18,09,17.30
2016,06,17,18,10,17.30
2016,06,17,18,11,17.30
2016,06,17,18,12,17.30
2016,06,17,18,13,17.30
2016,06,17,18,14,17.30
2016,06,17,18,15,17.30
2016,06,17,18,16,17.30
